Location: Ravensburg
(47.7866°N, 9.6124°E)
Time: 07:11:51
(UTC+02:00)

STARS - Pass Details

Date: 17 March 2026
Orbit: 575 x 588 km, 98.2° (Epoch: 15 April)

Event Time Altitude Azimuth Distance (km) Brightness Sun altitude
Rises 03:26:21 0° 3° (N) 2,801 ? -30.0°
Reaches altitude 10° 03:28:46 10° 351° (N) 1,896 ? -29.7°
Enters shadow 03:29:09 12° 347° (NNW) 1,762 ? -29.6°
